sat.trackr.live / text

‹ back to catalog

STARLINK-5571

NORAD 55380 · 2023-013BB

PAYLOAD ACTIVE UNKNOWN

§ Identity

Operator
Country
US
Launch date
2023-01-26
Launch site
AFETR
Launch vehicle
Mass (kg)
RCS (m²)

Purposes: comms

External: N2YO · Heavens-Above · Gunter

§ Orbital elements

Epoch: 2026-09-20T13:10:01.101504Z

Period
94.27 min
Inclination
43.0012°
Eccentricity
0.0001197
Mean motion
15.27580101 rev/d
Perigee alt
482.2 km
Apogee alt
483.9 km
Semi-major
6,861.2 km
B*
3.1374e-5
RAAN
287.0387°
Arg perigee
269.4221°
Mean anomaly
90.6493°
Rev number
20,142

§ Raw data

STARLINK-55711 55380U 23013BB  26263.54862386  .00000601  00000+0  31374-4 0  99992 55380  43.0012 287.0387 0001197 269.4221  90.6493 15.27580101201422

JSON: /api/v1/satellites/55380 · /tle

For live sub-satellite position, see the globe view (requires WebGL).

§ Visibility from observer

Set your observer location to see the next 7 days of passes ≥ 10°. The values pass through the URL so the page stays shareable.

No JS? Fill the form by hand. The geolocation button needs JavaScript.